Site-Specific Forecast Table for Stillwater
(NFDRS Fuel Model T - Tallgrass with brush)
DATE TIME TAIR RELH WSPD RAIN_24H BI SC ERC IC 1-HR 10-HR 100-HR 1000-HR HERB WOODY KBDI
Mon Jul 24, 2017 10:00 am CDT 85°F 69% 6 mph 0.03 in. 1 1 0 1% 14% 16% 8% 5% 184% 152% 315
Mon Jul 24, 2017 11:00 am CDT 88°F 62% 5 mph 0.03 in. 3 2 1 3% 11% 15% 8% 5% 184% 152% 315
Mon Jul 24, 2017 12:00 pm CDT 90°F 55% 6 mph 0.03 in. 5 2 1 5% 9% 14% 8% 5% 184% 152% 315
Mon Jul 24, 2017 1:00 pm CDT 93°F 49% 8 mph 0.03 in. 7 3 2 7% 7% 12% 8% 5% 184% 152% 315
Mon Jul 24, 2017 2:00 pm CDT 94°F 47% 8 mph 0.03 in. 8 3 2 9% 6% 11% 8% 5% 184% 152% 315
Mon Jul 24, 2017 3:00 pm CDT 95°F 45% 9 mph 0.03 in. 9 4 3 10% 6% 10% 7% 5% 184% 152% 315
Mon Jul 24, 2017 4:00 pm CDT 96°F 43% 9 mph 0.00 in. 9 4 3 10% 6% 9% 7% 5% 184% 152% 315
Mon Jul 24, 2017 5:00 pm CDT 95°F 45% 9 mph 0.00 in. 10 4 3 11% 6% 9% 7% 5% 184% 152% 328
Mon Jul 24, 2017 6:00 pm CDT 94°F 47% 10 mph 0.00 in. 10 4 3 10% 6% 8% 7% 5% 184% 152% 328
Mon Jul 24, 2017 7:00 pm CDT 92°F 49% 10 mph 0.00 in. 10 4 3 10% 6% 8% 7% 5% 184% 152% 328
Mon Jul 24, 2017 8:00 pm CDT 88°F 59% 9 mph 0.00 in. 9 4 3 9% 7% 8% 7% 5% 184% 152% 328
Mon Jul 24, 2017 9:00 pm CDT 84°F 69% 8 mph 0.00 in. 7 3 2 6% 8% 9% 8% 5% 184% 152% 328
Mon Jul 24, 2017 10:00 pm CDT 80°F 80% 7 mph 0.00 in. 6 2 2 4% 10% 10% 8% 5% 184% 152% 328
Mon Jul 24, 2017 11:00 pm CDT 78°F 84% 7 mph 0.00 in. 4 2 1 2% 12% 11% 8% 5% 184% 152% 328
Tue Jul 25, 2017 12:00 am CDT 77°F 89% 6 mph 0.00 in. 1 0 0 1% 14% 12% 8% 5% 184% 152% 328
Tue Jul 25, 2017 1:00 am CDT 76°F 93% 6 mph 0.00 in. 0 0 0 0% 17% 13% 9% 5% 184% 152% 328
Tue Jul 25, 2017 2:00 am CDT 75°F 94% 6 mph 0.00 in. 0 0 0 0% 21% 14% 9% 5% 184% 152% 328
Tue Jul 25, 2017 3:00 am CDT 74°F 95% 6 mph 0.00 in. 0 0 0 0% 24% 14% 9% 5% 184% 152% 328
Tue Jul 25, 2017 4:00 am CDT 72°F 96% 5 mph 0.00 in. 0 0 0 0% 28% 14% 9% 5% 184% 152% 328
Tue Jul 25, 2017 5:00 am CDT 72°F 97% 5 mph 0.00 in. 0 0 0 0% 29% 14% 9% 5% 184% 152% 328
DATE TIME TAIR RELH WSPD RAIN_24H BI SC ERC IC 1-HR 10-HR 100-HR 1000-HR HERB WOODY KBDI
Tue Jul 25, 2017 6:00 am CDT 71°F 98% 5 mph 0.00 in. 0 0 0 0% 30% 15% 9% 5% 184% 152% 328
Tue Jul 25, 2017 7:00 am CDT 71°F 98% 6 mph 0.00 in. 0 0 0 0% 31% 15% 9% 5% 184% 152% 328
Tue Jul 25, 2017 8:00 am CDT 76°F 86% 7 mph 0.00 in. 0 0 0 0% 25% 15% 9% 5% 184% 152% 328
Tue Jul 25, 2017 9:00 am CDT 82°F 73% 8 mph 0.00 in. 0 0 0 0% 18% 15% 9% 5% 184% 152% 328
Tue Jul 25, 2017 10:00 am CDT 87°F 60% 9 mph 0.00 in. 3 2 1 2% 13% 14% 9% 5% 184% 152% 328
Tue Jul 25, 2017 11:00 am CDT 90°F 56% 10 mph 0.00 in. 6 4 1 5% 10% 13% 9% 5% 184% 152% 328
Tue Jul 25, 2017 12:00 pm CDT 92°F 51% 10 mph 0.00 in. 8 4 2 7% 8% 12% 9% 5% 184% 152% 328
Tue Jul 25, 2017 1:00 pm CDT 95°F 47% 11 mph 0.00 in. 9 5 2 10% 7% 10% 8% 5% 184% 152% 328
Tue Jul 25, 2017 2:00 pm CDT 96°F 44% 11 mph 0.00 in. 10 5 3 11% 6% 10% 8% 5% 184% 152% 328
Tue Jul 25, 2017 3:00 pm CDT 97°F 42% 11 mph 0.00 in. 11 5 3 12% 6% 9% 8% 5% 184% 152% 328
Tue Jul 25, 2017 4:00 pm CDT 98°F 39% 11 mph 0.00 in. 11 5 3 13% 5% 8% 8% 5% 184% 152% 328
Tue Jul 25, 2017 5:00 pm CDT 97°F 41% 12 mph 0.00 in. 12 5 4 13% 5% 8% 8% 5% 184% 152% 343
Tue Jul 25, 2017 6:00 pm CDT 96°F 42% 13 mph 0.00 in. 12 6 4 13% 5% 7% 8% 5% 184% 152% 343
Tue Jul 25, 2017 7:00 pm CDT 95°F 43% 13 mph 0.00 in. 12 6 4 13% 6% 7% 8% 5% 184% 152% 343
Tue Jul 25, 2017 8:00 pm CDT 92°F 49% 13 mph 0.00 in. 12 6 3 12% 6% 7% 8% 5% 184% 152% 343
Tue Jul 25, 2017 9:00 pm CDT 89°F 55% 12 mph 0.00 in. 11 5 3 10% 6% 8% 8% 5% 184% 152% 343
Tue Jul 25, 2017 10:00 pm CDT 86°F 62% 12 mph 0.00 in. 10 5 3 9% 7% 8% 8% 5% 184% 152% 343
Tue Jul 25, 2017 11:00 pm CDT 84°F 66% 11 mph 0.00 in. 9 5 2 7% 8% 9% 8% 5% 184% 152% 343
Wed Jul 26, 2017 12:00 am CDT 83°F 70% 11 mph 0.00 in. 8 4 2 5% 9% 9% 8% 5% 184% 152% 343
Wed Jul 26, 2017 1:00 am CDT 81°F 75% 11 mph 0.00 in. 7 4 2 4% 10% 10% 9% 5% 184% 152% 343
DATE TIME TAIR RELH WSPD RAIN_24H BI SC ERC IC 1-HR 10-HR 100-HR 1000-HR HERB WOODY KBDI
Wed Jul 26, 2017 2:00 am CDT 80°F 76% 11 mph 0.00 in. 6 4 1 3% 11% 11% 9% 5% 184% 152% 343
Wed Jul 26, 2017 3:00 am CDT 79°F 78% 11 mph 0.00 in. 5 3 1 3% 12% 13% 9% 5% 184% 152% 343
Wed Jul 26, 2017 4:00 am CDT 78°F 80% 11 mph 0.00 in. 3 2 1 2% 13% 14% 9% 5% 184% 152% 343
Wed Jul 26, 2017 5:00 am CDT 78°F 78% 11 mph 0.00 in. 3 2 0 2% 13% 15% 10% 5% 184% 152% 343
Wed Jul 26, 2017 6:00 am CDT 77°F 76% 11 mph 0.00 in. 2 2 0 2% 13% 15% 10% 5% 184% 152% 343
Wed Jul 26, 2017 7:00 am CDT 77°F 74% 11 mph 0.00 in. 3 2 0 2% 13% 16% 10% 5% 184% 152% 343
Wed Jul 26, 2017 8:00 am CDT 81°F 66% 13 mph 0.00 in. 5 4 1 4% 12% 15% 10% 5% 184% 152% 343
Wed Jul 26, 2017 9:00 am CDT 86°F 58% 14 mph 0.00 in. 7 6 1 6% 10% 15% 10% 5% 184% 152% 343
Wed Jul 26, 2017 10:00 am CDT 90°F 51% 16 mph 0.00 in. 9 7 1 9% 8% 14% 9% 5% 184% 152% 343
Wed Jul 26, 2017 11:00 am CDT 93°F 46% 16 mph 0.00 in. 10 7 2 12% 7% 13% 9% 5% 184% 152% 343
Wed Jul 26, 2017 12:00 pm CDT 96°F 42% 17 mph 0.00 in. 12 8 2 13% 6% 12% 9% 5% 184% 152% 343
Wed Jul 26, 2017 1:00 pm CDT 99°F 38% 17 mph 0.00 in. 13 8 3 15% 6% 10% 9% 5% 184% 152% 343
Wed Jul 26, 2017 2:00 pm CDT 100°F 36% 18 mph 0.00 in. 14 9 3 17% 5% 9% 9% 5% 184% 152% 343
Wed Jul 26, 2017 3:00 pm CDT 100°F 34% 19 mph 0.00 in. 15 9 3 18% 5% 9% 8% 5% 184% 152% 343
Wed Jul 26, 2017 4:00 pm CDT 101°F 32% 20 mph 0.00 in. 15 9 4 19% 5% 8% 8% 5% 184% 152% 343
Wed Jul 26, 2017 5:00 pm CDT 100°F 33% 19 mph 0.00 in. 16 9 4 20% 5% 7% 8% 5% 184% 152% 359
Wed Jul 26, 2017 6:00 pm CDT 100°F 35% 18 mph 0.00 in. 16 9 4 20% 5% 7% 8% 5% 184% 152% 359
Wed Jul 26, 2017 7:00 pm CDT 98°F 36% 17 mph 0.00 in. 15 9 4 18% 5% 7% 8% 5% 184% 152% 359
Wed Jul 26, 2017 8:00 pm CDT 95°F 41% 15 mph 0.00 in. 14 7 4 16% 5% 7% 8% 5% 184% 152% 359
Wed Jul 26, 2017 9:00 pm CDT 92°F 46% 13 mph 0.00 in. 12 6 4 13% 6% 7% 8% 5% 184% 152% 359
DATE TIME TAIR RELH WSPD RAIN_24H BI SC ERC IC 1-HR 10-HR 100-HR 1000-HR HERB WOODY KBDI
Wed Jul 26, 2017 10:00 pm CDT 88°F 50% 11 mph 0.00 in. 10 4 3 10% 6% 7% 8% 5% 184% 152% 359
Wed Jul 26, 2017 11:00 pm CDT 87°F 54% 10 mph 0.00 in. 10 4 3 9% 7% 8% 8% 5% 184% 152% 359
Thu Jul 27, 2017 12:00 am CDT 85°F 58% 10 mph 0.00 in. 9 4 3 8% 7% 8% 8% 5% 184% 152% 359
Thu Jul 27, 2017 1:00 am CDT 83°F 61% 10 mph 0.00 in. 9 4 3 7% 8% 9% 9% 5% 184% 152% 359
Thu Jul 27, 2017 2:00 am CDT 81°F 66% 7 mph 0.00 in. 7 3 2 5% 9% 9% 9% 5% 184% 152% 359
Thu Jul 27, 2017 3:00 am CDT 79°F 71% 5 mph 0.00 in. 5 1 2 3% 10% 10% 9% 5% 184% 152% 359
Thu Jul 27, 2017 4:00 am CDT 78°F 77% 5 mph 0.00 in. 4 1 1 2% 11% 11% 9% 5% 184% 152% 359
Thu Jul 27, 2017 5:00 am CDT 77°F 81% 6 mph 0.00 in. 3 2 1 2% 12% 12% 9% 5% 184% 152% 359
Thu Jul 27, 2017 6:00 am CDT 77°F 86% 10 mph 0.00 in. 2 1 0 1% 14% 13% 10% 5% 184% 152% 359
Thu Jul 27, 2017 7:00 am CDT 77°F 91% 15 mph 0.00 in. 0 0 0 0% 15% 14% 10% 5% 184% 152% 359
Thu Jul 27, 2017 8:00 am CDT 78°F 84% 15 mph 0.00 in. 0 0 0 0% 16% 15% 10% 5% 184% 152% 359
Thu Jul 27, 2017 9:00 am CDT 80°F 78% 15 mph 0.00 in. 1 1 0 1% 14% 15% 10% 5% 184% 152% 359
Thu Jul 27, 2017 10:00 am CDT 81°F 71% 16 mph 0.00 in. 4 3 1 3% 12% 14% 10% 5% 184% 152% 359
Thu Jul 27, 2017 11:00 am CDT 83°F 68% 16 mph 0.00 in. 7 6 1 5% 11% 13% 9% 5% 184% 152% 359
Thu Jul 27, 2017 12:00 pm CDT 85°F 65% 15 mph 0.00 in. 9 7 1 7% 9% 12% 9% 5% 184% 152% 359
Thu Jul 27, 2017 1:00 pm CDT 86°F 61% 15 mph 0.00 in. 10 7 2 8% 8% 11% 9% 5% 184% 152% 359